ECMWFNIL_prec_cthk_021.txt.gz
RH
30 28 27 27 26 26 25 25 25 25 24 25 26 26 23 21 19 18 18 17 17 17 17 16 15 14 14 14 14 14 14 13 14 13 13 13 13 13 13 14 14 15
35 33 32 31 30 29 29 28 28 28 26 27 29 30 27 25 22 21 20 19 19 18 17 17 16 15 15 15 14 14 14 14 14 14 13 12 13 12 12 12 13 13
38 37 36 35 33 32 32 31 30 31 30 29 31 34 33 30 27 25 22 21 20 19 19 18 18 17 16 16 15 15 15 15 15 14 14 13 13 12 12 12 12 12
43 43 42 40 38 36 35 35 34 33 33 32 32 34 35 34 33 31 29 25 23 21 20 19 19 19 18 17 16 16 16 16 15 15 15 14 14 14 13 13 13 13
51 50 50 47 43 40 39 40 39 38 36 36 35 35 36 36 37 36 34 31 29 25 22 20 20 20 20 19 18 17 17 16 16 15 15 15 15 15 14 14 14 14
58 56 55 54 51 47 44 43 43 42 40 39 39 39 40 40 40 40 37 36 33 32 29 25 22 20 20 20 19 18 18 18 17 17 16 16 15 15 15 15 15 15
62 61 59 57 57 54 52 50 48 47 45 43 42 41 42 43 43 42 42 40 38 37 35 32 28 24 22 21 20 18 18 18 18 18 18 17 16 16 16 15 15 15
62 62 60 59 59 60 59 57 54 51 49 48 46 45 43 42 43 43 43 43 42 40 39 37 34 30 27 25 23 21 20 20 19 19 19 19 18 17 17 16 16 15
62 62 62 64 66 65 65 63 60 56 53 52 50 48 46 43 41 41 42 43 43 42 41 40 38 36 34 32 29 26 25 23 21 21 20 20 19 19 18 17 16 15
66 65 65 67 68 67 66 65 63 61 59 57 55 53 51 48 44 42 42 42 42 42 42 42 41 40 39 38 36 32 29 27 25 23 21 20 19 19 19 18 17 16
70 69 67 66 65 65 66 68 68 67 65 63 62 61 57 53 50 47 45 43 41 41 40 41 42 42 42 42 40 37 34 32 30 27 26 24 22 21 20 19 18 18
72 71 69 67 64 64 68 73 73 71 67 65 66 68 67 63 59 54 51 48 46 43 42 41 42 43 43 43 41 38 37 36 34 32 31 28 26 24 22 20 20 19
70 70 69 68 66 65 68 71 72 70 66 61 63 67 70 71 68 65 61 58 55 52 50 47 43 42 43 43 41 38 36 34 35 35 35 33 31 28 25 22 21 20
61 63 65 66 67 67 66 66 66 64 61 60 63 65 67 69 69 69 68 67 65 65 62 60 55 51 48 47 46 43 39 37 37 36 35 35 34 32 30 27 24 21
50 52 55 58 60 62 64 63 60 60 60 62 66 69 70 74 77 79 79 77 75 73 70 70 70 66 60 58 57 54 49 48 47 42 36 36 36 35 33 32 29 26
44 45 48 50 50 51 54 56 55 57 60 61 63 64 66 70 75 78 81 82 83 81 75 73 73 73 68 64 61 59 59 60 56 48 41 41 42 40 36 33 32 30
37 41 43 45 45 44 44 43 43 46 51 55 58 60 59 59 60 61 63 67 70 72 69 68 68 69 65 60 57 56 60 64 62 54 49 49 48 46 41 36 33 32
26 30 33 36 39 40 38 36 33 35 42 49 53 56 57 56 54 54 54 53 53 54 55 55 55 55 52 48 46 46 50 58 60 56 54 54 53 49 44 38 35 33
20 20 21 23 26 30 31 31 30 31 36 41 46 50 53 54 53 53 52 49 48 47 47 46 45 43 41 39 38 39 42 48 51 54 58 58 54 49 43 39 35 33
19 18 17 17 17 19 20 23 24 26 31 38 44 47 49 51 51 50 48 45 44 44 43 42 41 39 37 36 38 39 42 43 45 51 55 51 47 46 43 40 37 33
18 18 18 17 17 17 17 17 18 19 24 32 40 45 46 47 47 45 44 43 42 40 38 39 41 40 39 39 40 42 44 43 42 44 43 39 40 45 45 42 38 32
18 18 18 17 18 18 18 18 17 17 20 26 34 39 41 43 43 43 42 41 39 39 38 40 42 43 43 43 45 45 44 42 39 37 35 32 34 38 39 37 34 30
19 20 19 18 18 19 19 18 18 19 22 26 32 37 39 40 43 42 41 42 43 46 48 49 49 50 51 51 50 49 46 44 41 37 34 32 33 35 36 34 32 32
22 23 22 21 19 20 20 19 20 21 24 30 35 37 39 41 41 40 42 48 52 54 59 63 62 60 58 56 54 53 51 46 39 34 33 35 38 40 39 37 36 36
26 27 27 25 23 22 21 21 22 23 27 33 37 38 39 40 39 41 49 55 57 59 66 70 67 62 56 52 52 54 51 44 38 37 41 43 44 44 42 42 41 39
29 30 30 29 28 26 25 24 25 26 30 35 37 38 39 38 39 44 50 53 53 54 57 56 56 57 57 55 57 57 53 48 47 49 50 49 47 43 41 40 40 39

ECMWFNIL_prec_cthk_024.txt.gz
RH
31 30 30 28 28 31 30 28 30 29 27 28 30 30 29 26 23 21 20 18 18 17 17 16 15 14 13 14 14 14 13 13 13 14 13 13 14 14 14 14 14 15
36 36 35 33 32 32 32 31 32 31 31 31 31 33 33 30 27 25 24 22 21 19 18 18 17 16 15 14 14 14 14 14 13 14 13 13 13 12 12 12 12 12
42 41 40 39 36 34 33 34 34 34 35 34 34 35 35 32 31 30 29 28 27 24 22 20 19 18 17 16 15 15 15 15 14 14 13 13 12 12 12 12 11 11
50 47 45 44 41 39 37 36 36 36 36 37 37 37 36 35 34 33 32 32 32 31 29 26 24 21 19 18 17 17 17 16 16 15 15 15 14 13 13 12 12 12
58 56 53 51 49 47 44 41 39 37 37 39 39 39 39 38 37 36 35 34 34 34 34 32 31 27 24 21 19 18 18 17 17 17 17 17 16 15 14 14 14 13
65 64 60 57 55 55 54 52 48 43 41 41 42 42 42 41 41 41 40 39 38 37 35 35 35 33 30 27 24 22 21 20 19 17 18 18 18 17 16 15 15 14
65 65 64 61 58 58 59 59 57 54 50 48 47 47 46 45 44 43 43 43 43 42 40 39 38 38 36 33 31 28 25 23 21 20 20 21 19 19 19 18 16 17
63 61 60 59 57 57 60 61 61 61 59 57 55 53 52 51 50 48 46 45 44 43 43 42 41 41 40 38 36 34 31 29 27 24 23 23 21 21 21 19 17 17
71 66 60 57 56 56 57 58 59 61 62 62 63 61 57 55 53 52 51 48 46 45 43 42 42 41 42 40 39 38 37 36 34 31 30 28 26 25 23 21 19 18
77 76 70 67 65 62 61 59 58 59 61 63 66 66 63 61 58 56 56 54 51 50 48 46 44 43 43 43 43 41 41 41 40 38 36 35 33 31 29 26 24 22
76 79 77 75 74 71 70 67 64 62 63 64 65 65 65 67 65 63 62 61 59 58 57 54 51 48 46 45 44 44 44 45 45 43 40 39 38 37 35 32 30 27
77 79 79 78 77 78 78 77 75 72 69 68 66 65 64 65 67 68 67 65 65 66 66 63 60 56 54 51 49 47 47 47 46 45 42 39 38 38 39 37 36 34
78 81 83 81 80 81 82 82 82 80 78 76 73 70 68 65 67 71 70 68 69 71 72 71 69 66 63 58 55 54 54 51 48 45 43 41 39 37 37 37 37 36
69 73 76 76 76 79 82 83 83 80 80 80 77 73 71 68 68 70 70 68 67 67 69 72 74 73 72 68 64 63 64 63 59 54 48 44 43 40 39 39 38 36
55 55 55 56 57 60 68 75 79 79 78 78 77 74 71 69 67 66 65 66 65 65 66 68 69 72 76 75 71 70 70 68 66 63 54 46 43 43 45 47 47 43
41 41 41 42 41 41 44 50 57 62 66 70 73 75 74 72 69 68 65 64 64 66 68 68 66 66 70 72 70 69 68 65 62 61 57 53 50 49 49 51 53 55
32 31 31 31 32 33 35 35 36 39 44 50 56 62 68 70 70 72 72 67 62 61 63 63 61 59 60 64 64 63 62 58 54 51 49 49 50 50 48 48 52 56
33 32 30 27 25 26 29 31 31 30 32 35 39 44 53 60 64 67 69 68 64 61 59 58 56 53 52 53 53 53 51 48 44 41 40 40 40 40 40 41 43 45
36 34 32 29 25 23 23 24 25 26 26 28 32 35 41 51 57 60 62 63 63 60 56 54 52 50 49 47 46 45 43 40 37 36 36 36 35 34 35 37 39 38
32 32 30 27 24 21 20 19 20 20 20 20 23 25 28 34 43 52 57 58 57 54 51 48 47 47 47 45 44 41 39 36 35 34 36 35 33 34 36 37 37 35
26 27 27 25 23 21 20 19 19 19 19 19 21 25 27 27 32 39 44 46 46 45 44 44 44 44 43 42 41 38 35 33 33 33 35 36 36 36 37 37 35 33
23 24 27 27 26 26 24 22 20 19 19 19 22 28 32 32 33 36 37 37 38 38 39 39 39 40 40 39 37 34 32 32 33 35 37 39 39 39 36 32 32 32
23 24 27 29 30 30 29 27 23 20 20 21 24 29 33 34 36 38 37 36 36 36 36 37 37 37 36 35 34 32 31 33 37 41 42 42 41 39 35 34 36 38
28 29 31 32 33 33 32 32 29 26 26 27 29 32 33 33 36 38 36 36 37 37 37 37 37 36 35 35 34 33 34 38 43 48 48 46 44 43 40 40 43 43
34 35 35 36 36 36 36 35 34 32 32 32 33 34 34 34 36 37 35 36 37 37 37 37 38 36 35 35 33 34 39 44 48 51 51 50 49 49 47 46 47 47
38 38 38 37 38 37 37 37 37 36 34 34 35 35 36 36 36 37 36 37 38 37 37 41 43 40 36 36 37 39 45 48 47 44 43 43 45 48 50 51 53 54

ECMWFNIL_prec_cthk_030.txt.gz
RH
46 44 39 34 35 35 30 29 31 31 30 31 31 31 31 29 24 21 20 18 16 16 15 15 15 15 14 13 17 17 13 13 13 12 13 13 12 13 12 12 12 14
47 47 43 39 40 42 37 34 35 35 34 34 34 34 34 32 29 27 26 24 22 20 18 18 17 16 15 15 15 15 14 14 13 13 14 13 13 12 12 12 11 13
50 52 50 48 48 47 44 41 40 39 38 39 40 39 38 36 33 30 30 29 28 27 25 24 22 21 20 18 17 17 16 15 15 14 14 14 14 13 12 12 11 12
52 56 56 58 58 55 50 47 45 43 44 46 46 45 43 41 38 35 33 32 32 32 30 28 28 27 26 25 24 23 21 19 17 17 16 15 15 15 14 13 12 13
54 60 62 63 64 62 58 54 52 49 49 52 52 50 49 46 44 41 38 36 35 35 35 33 33 32 31 30 30 29 28 25 22 21 20 19 17 17 16 16 15 14
58 62 64 66 67 67 64 62 61 59 56 56 55 54 54 52 51 49 46 43 40 40 40 39 38 37 36 35 34 33 32 30 28 26 26 24 22 22 21 20 20 19
65 67 67 69 72 70 67 66 66 64 61 61 61 60 59 58 57 56 54 52 48 46 45 44 43 42 41 40 38 37 35 34 33 31 30 29 28 27 26 25 25 24
72 74 73 72 73 73 71 70 69 67 65 64 64 65 63 62 61 60 60 58 56 54 51 51 50 48 47 46 44 42 40 39 37 34 33 33 32 31 30 29 28 28
73 73 74 74 73 74 75 77 77 75 71 67 68 69 68 67 65 62 62 62 61 60 58 58 57 56 55 53 52 50 47 45 42 39 38 37 37 35 33 34 33 32
76 76 75 75 73 71 73 79 82 81 78 75 75 74 72 71 69 66 65 65 64 63 62 62 60 60 59 59 58 57 55 54 52 48 44 43 44 43 41 42 42 39
78 76 74 73 73 70 70 75 78 79 80 81 81 80 80 80 76 72 68 67 68 67 66 65 63 62 61 59 58 59 59 60 61 59 55 53 54 53 49 49 49 46
73 73 72 73 75 73 71 71 72 75 80 81 81 79 81 83 81 76 74 73 74 74 72 70 69 67 66 64 62 61 61 62 64 64 63 63 64 61 55 52 52 49
65 66 66 68 71 73 72 69 70 79 86 85 79 73 73 77 78 79 82 83 83 83 80 77 74 70 69 70 69 65 64 65 66 66 63 63 64 62 59 56 53 49
55 57 58 60 62 65 68 67 69 77 82 80 74 69 69 74 77 77 78 77 76 75 75 78 81 80 78 77 75 71 67 66 65 65 65 66 65 63 63 61 58 55
46 48 49 49 50 52 56 58 59 61 63 63 63 63 63 65 68 68 67 67 66 63 63 67 75 80 82 83 81 75 70 67 65 63 63 66 68 69 68 67 64 60
44 45 45 45 44 46 47 47 47 49 52 53 53 53 52 52 54 56 57 59 60 60 60 62 64 68 73 78 77 73 69 68 67 63 62 64 66 68 68 65 63 60
49 48 48 47 46 45 45 44 43 44 46 49 51 51 49 47 46 46 46 46 48 52 57 60 60 60 63 64 65 65 63 61 61 59 59 61 62 63 64 62 59 56
50 49 48 47 46 45 44 44 43 43 42 43 47 49 51 50 48 46 43 42 44 47 50 53 53 53 54 53 52 54 55 53 54 52 51 54 56 56 57 56 55 53
47 48 49 49 49 47 46 43 43 44 44 44 44 45 47 49 49 49 48 46 45 43 43 46 46 43 46 48 46 46 46 46 47 45 45 47 49 49 49 49 49 49
43 44 46 50 52 53 51 48 45 42 42 43 44 43 43 45 46 47 49 49 48 45 44 46 43 38 39 43 44 44 44 43 42 41 42 44 44 44 45 46 46 46
38 39 40 44 51 53 52 52 49 45 42 42 44 44 43 43 43 44 46 46 46 46 46 46 47 43 41 40 41 44 45 43 40 39 39 41 40 40 41 42 41 39
36 36 38 41 45 49 49 50 49 47 45 45 46 45 44 42 41 40 39 38 38 38 39 41 43 43 42 40 41 42 42 41 40 39 38 39 38 37 37 35 33 32
36 36 37 38 40 43 44 43 43 41 41 41 41 41 40 38 37 35 33 33 32 33 34 36 38 40 41 42 44 43 42 42 42 40 39 38 37 35 34 33 33 32
39 39 38 37 36 37 37 37 36 35 35 35 36 36 36 35 34 33 32 31 31 32 33 35 38 39 40 42 44 44 44 46 44 40 37 38 37 34 33 33 31 30
41 40 39 38 38 38 37 37 37 36 36 36 36 36 37 36 35 34 33 32 31 32 33 36 39 42 42 43 45 46 47 48 45 40 38 37 35 33 32 30 29 29
40 39 37 36 36 37 39 40 40 41 41 41 41 41 41 40 38 36 35 34 33 33 34 35 38 40 41 44 46 46 46 45 42 39 38 37 34 33 32 32 33 34

ECMWFNIL_prec_cthk_033.txt.gz
RH
54 49 41 36 35 34 32 30 29 26 24 23 23 24 25 25 25 24 23 21 20 18 17 16 15 15 14 14 13 13 12 12 12 12 12 12 11 11 11 11 11 11
59 51 42 39 40 40 39 38 38 36 32 30 29 27 27 28 29 30 29 28 27 26 24 22 20 18 17 16 16 15 14 14 13 14 13 12 12 11 11 10 10 10
65 55 44 42 45 47 45 46 49 48 44 40 38 36 34 33 33 33 33 33 33 32 31 30 28 26 24 22 20 19 18 17 16 15 15 14 13 12 12 11 10 10
70 62 51 46 49 52 51 51 54 55 52 47 44 45 45 42 41 38 37 37 37 36 36 35 34 33 32 30 28 26 24 22 21 19 18 16 15 15 14 13 12 12
75 68 61 53 51 55 56 55 56 57 57 54 51 50 52 52 50 48 45 44 44 43 42 41 41 40 38 37 35 34 32 30 28 26 23 22 20 19 17 16 15 15
79 71 65 60 56 55 57 58 60 61 61 60 58 56 56 57 58 58 56 54 53 52 50 48 47 47 45 43 41 40 39 37 35 33 30 28 27 26 24 23 22 21
78 73 69 68 65 60 58 61 66 68 67 66 65 64 62 62 63 64 65 65 63 61 58 55 53 52 52 51 50 49 47 44 41 40 38 34 32 31 29 28 28 26
76 76 73 74 75 71 67 67 69 72 72 71 71 69 68 68 67 67 68 69 69 69 67 63 61 59 59 59 59 58 56 54 50 48 45 41 38 37 35 33 33 32
73 78 78 78 78 76 74 73 71 73 73 72 72 73 73 75 73 70 68 69 72 75 75 71 68 66 67 67 67 67 64 61 59 55 53 50 47 44 44 44 43 41
69 75 79 81 80 78 78 75 72 73 73 72 71 72 75 78 77 74 71 72 74 76 77 77 73 71 72 73 73 73 70 67 65 64 64 62 59 55 54 55 52 48
67 70 73 76 78 78 80 79 75 73 72 72 71 70 72 75 77 78 78 78 78 77 77 80 79 78 78 80 79 75 73 70 68 67 67 68 68 65 61 61 60 55
64 68 71 72 72 73 76 77 76 72 69 71 72 69 67 68 72 78 80 79 79 79 79 80 82 82 83 83 81 77 74 72 70 69 68 69 70 69 65 63 63 62
66 69 71 69 68 67 68 69 69 67 65 66 68 69 66 65 69 76 80 78 75 75 75 76 79 82 84 83 81 79 78 79 77 74 72 70 70 68 66 63 62 61
60 64 65 63 63 64 64 64 63 62 61 61 63 65 63 60 62 70 78 77 70 67 68 70 70 71 73 74 74 74 76 80 80 77 73 70 67 65 65 65 64 63
50 52 52 51 53 56 56 56 54 52 52 54 55 55 55 53 53 57 62 65 64 62 63 63 63 61 61 65 69 70 69 70 72 73 72 70 68 65 64 65 66 66
50 51 51 50 50 51 52 51 50 48 47 48 49 49 49 49 49 48 48 50 52 54 56 58 58 57 57 60 65 68 68 65 65 66 65 65 65 65 66 65 64 64
53 54 54 54 53 53 53 52 51 51 51 51 51 51 51 51 50 47 44 44 45 49 52 53 52 51 53 56 59 61 60 60 61 61 60 60 61 61 60 59 57 54
55 55 55 54 54 54 54 54 54 54 54 54 53 52 51 52 51 48 45 44 44 45 47 47 46 44 47 54 59 60 58 56 57 60 62 63 63 60 57 55 52 50
49 49 49 49 49 50 50 51 52 52 53 53 53 52 51 51 50 49 48 46 46 45 45 45 44 43 43 46 49 52 55 54 53 55 59 61 60 57 55 53 52 49
41 41 41 41 40 40 41 41 42 43 42 42 42 43 43 45 46 47 48 48 48 47 47 46 45 46 45 44 41 43 48 51 51 53 57 58 57 55 54 54 54 53
41 40 39 38 37 36 36 36 36 35 35 34 33 31 30 31 34 38 42 45 47 47 47 46 44 45 46 45 43 44 47 49 49 51 53 55 56 58 57 55 51 48
41 40 39 37 36 36 36 36 35 34 34 33 33 31 30 30 30 32 37 42 45 48 48 47 46 47 46 45 44 45 46 46 46 47 48 49 51 54 54 53 49 42
41 40 38 35 36 38 39 39 39 38 38 37 35 34 34 35 36 37 41 43 44 45 45 45 44 44 43 42 42 43 44 44 45 46 47 48 50 50 50 51 52 47
41 40 38 37 37 38 39 41 41 41 41 40 38 37 36 37 37 39 41 41 40 40 40 40 39 38 38 39 40 42 43 44 45 45 47 49 52 52 51 51 52 49
41 40 39 37 37 37 38 40 41 42 43 42 41 40 39 38 37 38 38 38 38 39 39 39 39 38 37 38 39 40 42 44 45 46 48 49 50 53 55 53 49 46
43 41 39 39 38 38 39 39 40 41 43 43 43 43 42 41 40 40 41 41 41 42 43 42 41 40 40 40 40 41 42 43 44 46 47 48 48 49 51 47 42 38